CW4629 Weather Reports


time (UTC)temp
F
wind
direction
speed
knots
gust
knots
rain 1hr
in
rain 24hr
in
rain mn
in
humidity
%
barometer
mb
20260902231513 92 238 8.7 11.3 0.00 0.00 0.00 7 1013.5
20260902230530 92 251 6.1 11.3 0.00 0.00 0.00 6 1013.8
20260902225617 92 233 9.6 17.4 0.00 0.00 0.00 7 1013.7
20260902224629 93 226 7.0 9.6 0.00 0.00 0.00 6 1013.7
20260902222731 92 217 10.4 17.4 0.00 0.00 0.00 7 1014.0
20260902221729 92 233 5.2 7.8 0.00 0.00 0.00 6 1014.1
20260902220729 93 215 10.4 15.6 0.00 0.00 0.00 7 1014.4
20260902215815 92 237 7.8 11.3 0.00 0.00 0.00 9 1014.4
20260902214833 91 216 6.1 9.6 0.00 0.00 0.00 9 1014.4
20260902213829 91 226 9.6 15.6 0.00 0.00 0.00 9 1014.7
20260902212814 91 235 10.4 17.4 0.00 0.00 0.00 11 1014.9
20260902210913 92 175 7.8 12.2 0.00 0.00 0.00 11 1014.9
20260902203914 92 218 10.4 15.6 0.00 0.00 0.00 11 1015.6
20260902203816 92 220 7.8 12.2 0.00 0.00 0.00 10 1015.4
20260902202912 90 217 7.0 14.8 0.00 0.00 0.00 12 1015.4
20260902201915 91 243 7.8 13.9 0.00 0.00 0.00 11 1015.5
20260902200928 90 250 5.2 10.4 0.00 0.00 0.00 11 1015.7
20260902195913 90 232 7.0 9.6 0.00 0.00 0.00 13 1015.9
20260902195814 90 198 6.1 11.3 0.00 0.00 0.00 13 1015.9
20260902193828 90 229 8.7 13.0 0.00 0.00 0.00 14 1016.4
20260902192830 90 214 7.8 12.2 0.00 0.00 0.00 14 1016.6
20260902191915 89 223 6.1 9.6 0.00 0.00 0.00 14 1016.4
20260902191012 89 187 7.0 12.2 0.00 0.00 0.00 15 1016.6
20260902190029 89 219 7.8 13.0 0.00 0.00 0.00 14 1016.8
20260902185012 88 302 2.6 3.5 0.00 0.00 0.00 16 1016.7
20260902184013 88 242 5.2 7.8 0.00 0.00 0.00 17 1017.0
20260902183012 87 227 5.2 7.0 0.00 0.00 0.00 17 1017.1
20260902182011 88 252 4.3 7.0 0.00 0.00 0.00 18 1017.3
20260902181016 87 242 3.5 7.0 0.00 0.00 0.00 19 1017.3
20260902180930 87 229 6.1 9.6 0.00 0.00 0.00 19 1017.4
20260902174113 87 219 4.3 7.8 0.00 0.00 0.00 21 1017.6
20260902174014 87 222 3.5 7.8 0.00 0.00 0.00 21 1017.6
20260902173030 88 235 3.5 6.1 0.00 0.00 0.00 22 1017.5
20260902172112 88 253 1.7 4.3 0.00 0.00 0.00 23 1017.7
20260902171115 88 337 0.0 0.9 0.00 0.00 0.00 23 1017.6
20260902170129 88 22 0.0 0.9 0.00 0.00 0.00 24 1017.5
20260902165115 88 45 0.9 1.7 0.00 0.00 0.00 27 1017.4
20260902164112 85 80 0.0 0.0 0.00 0.00 0.00 29 1017.7
20260902163129 86 184 2.6 3.5 0.00 0.00 0.00 30 1017.5
20260902163013 86 180 0.0 1.7 0.00 0.00 0.00 31 1017.5
20260902162014 85 202 0.0 0.9 0.00 0.00 0.00 31 1017.5
20260902161013 83 112 0.0 0.0 0.00 0.00 0.00 33 1017.7
20260902160013 82 67 0.0 1.7 0.00 0.00 0.00 35 1017.6
20260902155028 80 270 1.7 1.7 0.00 0.00 0.00 36 1017.6
20260902154113 80 276 0.0 0.9 0.00 0.00 0.00 38 1017.5
20260902153211 81 292 0.0 1.7 0.00 0.00 0.00 37 1017.7
20260902152214 79 247 0.0 0.0 0.00 0.00 0.00 38 1017.6
20260902151213 78 202 0.0 0.0 0.00 0.00 0.00 41 1017.6
20260902145313 75 292 0.0 0.0 0.00 0.00 0.00 39 1017.6
20260902144312 73 247 0.0 0.9 0.00 0.00 0.00 41 1017.5
20260902143327 72 292 0.0 0.0 0.00 0.00 0.00 47 1017.4
20260902142331 72 202 0.0 0.0 0.00 0.00 0.00 47 1017.3
20260902141413 71 156 0.9 2.6 0.00 0.00 0.00 47 1017.2
20260902140428 69 22 0.0 0.0 0.00 0.00 0.00 50 1017.3
20260902135413 68 247 0.0 0.0 0.00 0.00 0.00 51 1017.2
20260902134512 68 225 0.0 0.0 0.00 0.00 0.00 48 1017.1
20260902132612 67 202 0.0 0.0 0.00 0.00 0.00 50 1017.2
20260902131613 66 292 0.0 0.9 0.00 0.00 0.00 58 1017.0
20260902130614 66 337 0.0 0.0 0.00 0.00 0.00 61 1016.8
20260902125628 66 337 0.0 0.0 0.00 0.00 0.00 60 1016.8
20260902124629 67 337 0.0 0.0 0.00 0.00 0.00 59 1016.6
20260902123714 67 337 0.0 0.0 0.00 0.00 0.00 59 1016.5
20260902122812 67 337 0.0 0.0 0.00 0.00 0.00 60 1016.4
20260902122711 67 337 0.0 0.0 0.00 0.00 0.00 60 1016.5
20260902121729 67 337 0.0 0.0 0.00 0.00 0.00 57 1016.5
20260902120811 67 67 0.0 0.0 0.00 0.00 0.00 58 1016.4
20260902115813 69 67 0.0 0.0 0.00 0.00 0.00 55 1016.5
20260902114829 69 90 0.9 0.9 0.00 0.00 0.00 54 1016.3
20260902112812 70 337 0.0 0.0 0.00 0.00 0.00 53 1016.3
20260902111813 69 337 1.7 2.6 0.00 0.00 0.00 53 1016.2
20260902111728 69 343 1.7 2.6 0.00 0.00 0.00 52 1016.1
20260902110813 70 45 0.0 0.9 0.00 0.00 0.00 51 1016.1
20260902105827 70 45 0.0 0.0 0.00 0.00 0.00 50 1016.0
20260902103928 71 45 0.0 0.9 0.00 0.00 0.00 48 1016.1
20260902103827 71 45 1.7 2.6 0.00 0.00 0.00 48 1016.1
20260902102829 72 67 0.0 0.0 0.00 0.00 0.00 48 1016.0
20260902101913 72 67 0.0 0.0 0.00 0.00 0.00 47 1016.0
20260902100912 73 67 0.0 0.0 0.00 0.00 0.00 44 1015.9
20260902095914 73 67 0.0 0.9 0.00 0.00 0.00 46 1016.0
20260902094011 74 67 0.0 0.0 0.00 0.00 0.00 43 1015.9
20260902093027 73 67 0.0 0.9 0.00 0.00 0.00 46 1015.9
20260902092111 73 67 0.0 0.0 0.00 0.00 0.00 45 1015.9
20260902091113 72 47 1.7 3.5 0.00 0.00 0.00 48 1016.0
20260902085114 74 90 0.0 0.0 0.00 0.00 0.00 45 1015.9
20260902084127 73 90 1.7 2.6 0.00 0.00 0.00 46 1015.7
20260902082227 73 330 0.0 0.9 0.00 0.00 0.00 47 1016.0
20260902081227 74 337 0.0 0.0 0.00 0.00 0.00 46 1015.9
20260902075329 74 326 0.9 1.7 0.00 0.00 0.00 45 1015.6
20260902074410 75 292 1.7 2.6 0.00 0.00 0.00 44 1015.6
20260902074328 75 292 1.7 1.7 0.00 0.00 0.00 43 1015.7
20260902073312 76 67 0.0 0.0 0.00 0.00 0.00 42 1015.4
20260902073227 76 67 0.0 0.9 0.00 0.00 0.00 41 1015.5
20260902072312 76 315 0.0 0.0 0.00 0.00 0.00 40 1015.4
20260902071326 77 202 0.0 0.9 0.00 0.00 0.00 38 1015.4
20260902070411 77 185 2.6 4.3 0.00 0.00 0.00 37 1015.3
20260902065511 78 337 0.0 0.0 0.00 0.00 0.00 37 1015.3
20260902064526 79 337 0.0 0.9 0.00 0.00 0.00 36 1015.3
20260902063611 79 360 0.0 0.9 0.00 0.00 0.00 36 1015.3
20260902061713 82 156 0.9 2.6 0.00 0.00 0.00 33 1015.1
20260902060711 83 82 1.7 3.5 0.00 0.00 0.00 31 1014.9
20260902055724 83 113 2.6 4.3 0.00 0.00 0.00 31 1015.0
20260902053725 82 132 1.7 3.5 0.00 0.00 0.00 31 1014.9
20260902052807 83 136 0.9 2.6 0.00 0.00 0.00 30 1014.9
20260902051809 83 132 0.9 2.6 0.00 0.00 0.00 30 1015.2
20260902045924 83 154 2.6 6.1 0.00 0.00 0.00 28 1015.2
20260902044809 84 146 3.5 6.1 0.00 0.00 0.00 29 1014.9
20260902042925 84 152 1.7 4.3 0.00 0.00 0.00 29 1014.9
20260902041909 85 149 2.6 6.1 0.00 0.00 0.00 29 1014.8
20260902040926 85 162 2.6 6.1 0.00 0.00 0.00 29 1014.6
20260902040008 85 150 2.6 6.1 0.00 0.00 0.00 29 1014.6
20260902034024 85 175 2.6 4.3 0.00 0.00 0.00 28 1014.3
20260902033109 85 136 1.7 2.6 0.00 0.00 0.00 26 1014.3
20260902030110 86 195 4.3 7.8 0.00 0.00 0.00 25 1014.0
20260902030023 86 197 5.2 7.8 0.00 0.00 0.00 24 1014.0
20260902025027 86 202 4.3 6.1 0.00 0.00 0.00 25 1014.0
20260902024123 87 181 2.6 2.6 0.00 0.00 0.00 25 1013.8
20260902023109 87 188 2.6 4.3 0.00 0.00 0.00 24 1013.6
20260902021210 88 205 4.3 9.6 0.00 0.00 0.00 22 1013.7
20260902020308 89 192 4.3 6.1 0.00 0.00 0.00 23 1013.6
20260902013324 91 205 5.2 8.7 0.00 0.00 0.00 20 1013.9
20260902012408 91 207 7.0 11.3 0.00 0.00 0.00 21 1013.8
20260902010409 92 210 7.0 10.4 0.00 0.00 0.00 20 1014.0
20260902005424 92 222 8.7 14.8 0.00 0.00 0.00 20 1014.0
20260902003410 92 221 9.6 13.9 0.00 0.00 0.00 19 1014.1
20260902002507 92 211 7.8 11.3 0.00 0.00 0.00 19 1013.9
20260902002409 92 216 7.8 12.2 0.00 0.00 0.00 20 1013.9
20260902001425 93 209 7.8 12.2 0.00 0.00 0.00 19 1014.0
20260902000509 93 214 9.6 14.8 0.00 0.00 0.00 20 1014.0
20260901235608 93 218 7.8 12.2 0.00 0.00 0.00 18 1014.0
20260901234610 93 228 9.6 13.9 0.00 0.00 0.00 18 1014.2
20260901233623 93 185 7.8 13.0 0.00 0.00 0.00 19 1014.1